{"data":{"norad_id":67896,"epoch":"2026-09-19T01:16:51.917088Z","epoch_age_seconds":188159,"freshness":"STALE","line1":"1 67896U 26035T   26262.05337867  .00023690  00000+0  73336-3 0  9993","line2":"2 67896  97.2839 193.9611 0001818  87.3813 272.7638 15.33464391 33622","mean_motion":15.33464391,"eccentricity":0.0001818,"inclination_deg":97.2839,"raan_deg":193.9611,"arg_perigee_deg":87.3813,"mean_anomaly_deg":272.7638,"bstar":0.00073336,"rev_number":3362,"period_min":93.905017191886,"perigee_km":464.24131054576,"apogee_km":466.72965167989,"semimajor_km":6843.6224811128,"source":"CELESTRAK","updated_at":"2026-09-20T09:00:43.699070Z"}}